This demonstration page uses our WeatherBlox Daily Observations layout. Learn more.

Hourly Observations for March 26, 2019

Temp ( °F °C ) Dew Point ( °F °C ) Humidity (%) Winds ( mph kmh ) Pressure ( in mb ) Visibility ( mi km ) Precip ( " mm )
12:15 am 00:15 Cloudy 41 5 39 4 93 93 NNE 7 11 30.15 1021 10 16.09344 0 0
12:35 am 00:35 Cloudy 39 4 39 4 100 100 NNE 8 13 30.15 1021 4 6.437376 0 0
12:55 am 00:55 Cloudy 39 4 39 4 100 100 NNE 8 13 30.15 1021 5 8.04672 0 0
1:15 am 01:15 Cloudy 39 4 39 4 100 100 NNE 6 9 30.15 1021 5 8.04672 0 0
1:35 am 01:35 Cloudy 37 3 37 3 100 100 Calm 30.15 1021 7 11.265408 0 0
1:55 am 01:55 Cloudy 37 3 37 3 100 100 NNE 7 11 30.15 1021 7 11.265408 0 0
2:15 am 02:15 Cloudy 37 3 37 3 100 100 N 5 7 30.15 1021 10 16.09344 0 0
2:35 am 02:35 Cloudy 37 3 37 3 100 100 NNE 8 13 30.15 1021 10 16.09344 0 0
2:55 am 02:55 Cloudy 39 4 37 3 93 93 N 8 13 30.18 1022 10 16.09344 0 0
3:15 am 03:15 Cloudy 39 4 37 3 93 93 NNE 7 11 30.15 1021 10 16.09344 0 0
3:35 am 03:35 Cloudy 39 4 37 3 93 93 N 9 15 30.18 1022 10 16.09344 0 0
3:55 am 03:55 Cloudy 41 5 36 2 81 81 NNE 8 13 30.18 1022 10 16.09344 0 0
4:15 am 04:15 Cloudy 41 5 34 1 76 76 NNE 15 24 30.18 1022 10 16.09344 0 0
4:35 am 04:35 Cloudy 41 5 32 0 70 70 NNE 9 15 30.18 1022 10 16.09344 0 0
4:55 am 04:55 Cloudy 39 4 30 -1 70 70 NNE 14 22 30.18 1022 10 16.09344 0 0
5:15 am 05:15 Cloudy 37 3 27 -3 65 65 NNE 14 22 30.21 1023 10 16.09344 0 0
5:35 am 05:35 Cloudy 37 3 27 -3 65 65 NNE 13 20 30.21 1023 10 16.09344 0 0
5:55 am 05:55 Partly Cloudy 36 2 23 -5 60 60 NNE 13 20 30.24 1024 10 16.09344 0 0
6:15 am 06:15 Partly Cloudy 36 2 21 -6 56 56 NNE 9 15 30.24 1024 10 16.09344 0 0
6:35 am 06:35 Clear 36 2 19 -7 52 52 NNE 13 20 30.24 1024 10 16.09344 0 0
6:55 am 06:55 Clear 36 2 19 -7 52 52 NNE 9 15 30.24 1024 10 16.09344 0 0
7:15 am 07:15 Sunny 34 1 18 -8 51 51 NNE 6 9 30.27 1025 10 16.09344 0 0
7:35 am 07:35 Sunny 34 1 18 -8 51 51 NNE 9 15 30.27 1025 10 16.09344 0 0
7:55 am 07:55 Sunny 36 2 18 -8 48 48 NNE 9 15 30.3 1026 10 16.09344 0 0
8:15 am 08:15 Sunny 36 2 16 -9 44 44 NNE 14 22 30.3 1026 10 16.09344 0 0
8:35 am 08:35 Sunny 36 2 14 -10 41 41 NNE 17 28 30.33 1027 10 16.09344 0 0
8:55 am 08:55 Sunny 37 3 14 -10 38 38 NNE 13 20 30.33 1027 10 16.09344 0 0
9:15 am 09:15 Sunny 37 3 14 -10 38 38 NNE 13 20 30.33 1027 10 16.09344 0 0
9:35 am 09:35 Sunny 37 3 14 -10 38 38 NNE 13 20 30.33 1027 10 16.09344 0 0
9:55 am 09:55 Sunny 37 3 14 -10 38 38 NNE 10 17 30.36 1028 10 16.09344 0 0
10:15 am 10:15 Sunny 39 4 14 -10 36 36 NNE 13 20 30.36 1028 10 16.09344 0 0
10:35 am 10:35 Sunny 41 5 14 -10 33 33 N 12 19 30.36 1028 10 16.09344 0 0
10:55 am 10:55 Sunny 41 5 16 -9 36 36 NE 15 24 30.36 1028 10 16.09344 0 0
11:15 am 11:15 Sunny 41 5 16 -9 36 36 NNE 13 20 30.36 1028 10 16.09344 0 0
11:35 am 11:35 Sunny 41 5 18 -8 39 39 NE 14 22 30.36 1028 10 16.09344 0 0
11:55 am 11:55 Sunny 41 5 18 -8 39 39 NNE 13 20 30.39 1029 10 16.09344 0 0
12:15 pm 12:15 Sunny 43 6 18 -8 36 36 NE 10 17 30.36 1028 10 16.09344 0 0
12:35 pm 12:35 Sunny 43 6 18 -8 36 36 NNE 14 22 30.36 1028 10 16.09344 0 0
12:55 pm 12:55 Sunny 43 6 18 -8 36 36 NE 13 20 30.36 1028 10 16.09344 0 0
1:15 pm 13:15 Sunny 45 7 18 -8 34 34 NE 8 13 30.36 1028 10 16.09344 0 0
1:35 pm 13:35 Sunny 45 7 18 -8 34 34 NNE 10 17 30.36 1028 10 16.09344 0 0
1:55 pm 13:55 Sunny 46 8 21 -6 37 37 NNE 10 17 30.36 1028 10 16.09344 0 0
2:15 pm 14:15 Sunny 46 8 19 -7 34 34 NNE 13 20 30.33 1027 10 16.09344 0 0
2:35 pm 14:35 Sunny 46 8 19 -7 34 34 NE 8 13 30.33 1027 10 16.09344 0 0
2:55 pm 14:55 Sunny 48 9 21 -6 34 34 NE 8 13 30.33 1027 10 16.09344 0 0
3:15 pm 15:15 Sunny 46 8 19 -7 34 34 ENE 10 17 30.33 1027 10 16.09344 0 0
3:35 pm 15:35 Sunny 50 10 21 -6 32 32 NNE 8 13 30.33 1027 10 16.09344 0 0
3:55 pm 15:55 Sunny 50 10 23 -5 35 35 NNW 15 24 30.33 1027 10 16.09344 0 0
4:15 pm 16:15 Sunny 48 9 23 -5 37 37 NNW 9 15 30.33 1027 10 16.09344 0 0
4:35 pm 16:35 Sunny 50 10 23 -5 35 35 NNE 10 17 30.33 1027 10 16.09344 0 0
4:55 pm 16:55 Sunny 50 10 23 -5 35 35 N 12 19 30.33 1027 10 16.09344 0 0
5:15 pm 17:15 Sunny 48 9 21 -6 34 34 N 8 13 30.33 1027 10 16.09344 0 0
5:35 pm 17:35 Sunny 50 10 21 -6 32 32 NE 9 15 30.33 1027 10 16.09344 0 0
5:55 pm 17:55 Sunny 50 10 21 -6 32 32 NE 12 19 30.33 1027 10 16.09344 0 0
6:15 pm 18:15 Sunny 48 9 19 -7 32 32 NE 13 20 30.33 1027 10 16.09344 0 0
6:35 pm 18:35 Sunny 46 8 19 -7 34 34 NE 10 17 30.36 1028 10 16.09344 0 0
6:55 pm 18:55 Sunny 46 8 19 -7 34 34 NE 8 13 30.36 1028 10 16.09344 0 0
7:15 pm 19:15 Sunny 46 8 19 -7 34 34 NNE 9 15 30.36 1028 10 16.09344 0 0
7:35 pm 19:35 Clear 45 7 19 -7 37 37 NNE 6 9 30.36 1028 10 16.09344 0 0
7:55 pm 19:55 Clear 45 7 19 -7 37 37 NNE 5 7 30.39 1029 10 16.09344 0 0
8:15 pm 20:15 Clear 45 7 19 -7 37 37 NNE 6 9 30.39 1029 10 16.09344 0 0
8:35 pm 20:35 Clear 43 6 19 -7 39 39 NE 3 6 30.39 1029 10 16.09344 0 0
8:55 pm 20:55 Clear 43 6 19 -7 39 39 NE 3 6 30.39 1029 10 16.09344 0 0
9:15 pm 21:15 Clear 43 6 19 -7 39 39 NE 3 6 30.39 1029 10 16.09344 0 0
9:35 pm 21:35 Clear 41 5 19 -7 42 42 Calm 30.42 1030 10 16.09344 0 0
9:55 pm 21:55 Clear 36 2 25 -4 65 65 Calm 30.42 1030 10 16.09344 0 0
10:15 pm 22:15 Clear 36 2 25 -4 65 65 Calm 30.42 1030 10 16.09344 0 0
10:35 pm 22:35 Clear 36 2 27 -3 70 70 Calm 30.42 1030 10 16.09344 0 0
10:55 pm 22:55 Clear 34 1 25 -4 70 70 Calm 30.42 1030 10 16.09344 0 0
11:15 pm 23:15 Clear 32 0 25 -4 75 75 NNW 3 6 30.42 1030 10 16.09344 0 0
11:35 pm 23:35 Clear 32 0 27 -3 80 80 Calm 30.42 1030 10 16.09344 0 0
11:55 pm 23:55 Clear 32 0 27 -3 80 80 Calm 30.42 1030 10 16.09344 0 0

Powered by AerisWeather